ELY084 VTBS-LLBG

Flight info

Callsign ELY084
Flight time 10h 32m
Altitude 34000
Route BONVO M502 LALIT P762 PPB P761 IDASO/N0490F360 P761 MMV/N0468F280 L875 VUTAS UT383 HARGA UW885 ARSHI DCT ERDIR UT112 QHA T445 TEXOK/N0480F370 UM308 KONET G650 RASKA T513 JDW/N0480F380 L677 WEJ M449 MUNRA L513 QTR01 DCT OSAMA N134 SALAM
Aircraft B772/H-SDE2E3FGHIJ1J4J5LM1OP2RVWXY/LB1D1

Departure

Time 2026-05-04 08:40
Airport Suvarnabhumi Airport (VTBS)

Arrival

Time 2026-05-04 19:12
Airport Ben Gurion International Airport (LLBG)
Time Latitude Longitude Altitude Speed Heading
2026-05-04 08:24 13.68888 100.74670 17 ft 0 kts 284°
2026-05-04 08:31 13.68914 100.74756 17 ft 0 kts 194°
2026-05-04 08:35 13.68713 100.74111 18 ft 16 kts 315°
2026-05-04 08:35 13.68828 100.74105 18 ft 18 kts 13°
2026-05-04 08:35 13.68961 100.74140 18 ft 21 kts 14°
2026-05-04 08:35 13.69101 100.74177 17 ft 22 kts 14°
2026-05-04 08:37 13.70135 100.74449 18 ft 27 kts 14°
2026-05-04 08:37 13.70286 100.74483 19 ft 11 kts 356°
2026-05-04 08:37 13.70334 100.74440 18 ft 8 kts 288°
2026-05-04 08:38 13.70336 100.74434 18 ft 1 kts 285°
2026-05-04 08:38 13.70332 100.74349 19 ft 13 kts 239°
2026-05-04 08:38 13.70185 100.74272 19 ft 36 kts 195°
2026-05-04 08:40 13.61853 100.72097 2524 ft 240 kts 194°
2026-05-04 08:40 13.60201 100.71650 2949 ft 249 kts 194°
2026-05-04 08:40 13.58504 100.71193 3468 ft 256 kts 195°
2026-05-04 08:41 13.56743 100.70721 3900 ft 265 kts 194°
2026-05-04 08:41 13.54996 100.70090 4286 ft 270 kts 213°
2026-05-04 08:41 13.53722 100.68672 4767 ft 276 kts 244°
2026-05-04 08:41 13.53274 100.66763 5328 ft 278 kts 270°
2026-05-04 08:42 13.53566 100.64800 5843 ft 280 kts 284°
2026-05-04 08:42 13.54063 100.62849 6344 ft 284 kts 284°
2026-05-04 08:42 13.54569 100.60879 6938 ft 286 kts 285°
2026-05-04 08:42 13.55338 100.59008 7331 ft 289 kts 308°
2026-05-04 08:43 13.56875 100.57689 7827 ft 290 kts 336°
2026-05-04 08:43 13.58822 100.57211 8372 ft 288 kts 360°
2026-05-04 08:43 13.60842 100.57253 8780 ft 293 kts
2026-05-04 08:43 13.62893 100.57326 9280 ft 296 kts
2026-05-04 08:44 13.64925 100.57392 9842 ft 296 kts
2026-05-04 08:44 13.66987 100.57458 10396 ft 297 kts
2026-05-04 08:46 13.82201 100.55095 13269 ft 341 kts 328°
2026-05-04 08:46 13.84139 100.53709 13756 ft 341 kts 315°
2026-05-04 08:46 13.85442 100.51669 14145 ft 346 kts 287°
2026-05-04 08:46 13.85685 100.49217 14695 ft 347 kts 261°
2026-05-04 08:47 13.85215 100.46787 15143 ft 348 kts 258°
2026-05-04 08:47 13.84740 100.44324 15652 ft 351 kts 258°
2026-05-04 08:47 13.84274 100.41866 16359 ft 349 kts 258°
2026-05-04 08:47 13.83818 100.39441 16955 ft 349 kts 258°
2026-05-04 08:48 13.83359 100.36972 17471 ft 352 kts 258°
2026-05-04 08:48 13.82899 100.34480 17954 ft 356 kts 258°
2026-05-04 08:48 13.82440 100.31972 18470 ft 358 kts 259°
2026-05-04 08:48 13.81979 100.29446 18953 ft 360 kts 259°
2026-05-04 08:49 13.81518 100.26904 19429 ft 363 kts 259°
2026-05-04 08:50 13.78707 100.11346 22167 ft 375 kts 259°
2026-05-04 08:50 13.78229 100.08699 22602 ft 377 kts 259°
2026-05-04 08:51 13.77748 100.06041 22978 ft 379 kts 259°
2026-05-04 08:51 13.77265 100.03364 23357 ft 382 kts 259°
2026-05-04 08:51 13.76776 100.00674 23742 ft 384 kts 259°
2026-05-04 08:51 13.76282 99.97964 24138 ft 386 kts 259°
2026-05-04 08:52 13.75788 99.95246 24523 ft 388 kts 259°
2026-05-04 08:52 13.75291 99.92514 24890 ft 390 kts 259°
2026-05-04 08:52 13.74791 99.89764 25267 ft 391 kts 259°
2026-05-04 08:52 13.74288 99.87001 25628 ft 394 kts 259°
2026-05-04 08:53 13.73783 99.84224 25982 ft 395 kts 259°
2026-05-04 08:54 13.70176 99.64475 28298 ft 409 kts 259°
2026-05-04 08:55 13.69647 99.61582 28592 ft 411 kts 259°
2026-05-04 08:55 13.69117 99.58691 29041 ft 412 kts 259°
2026-05-04 08:55 13.68765 99.56774 29326 ft 413 kts 259°
2026-05-04 08:55 13.68051 99.52870 29774 ft 417 kts 259°
2026-05-04 08:57 13.64404 99.33050 31589 ft 428 kts 259°
2026-05-04 09:01 13.56457 98.90149 33836 ft 452 kts 259°
2026-05-04 09:01 13.55270 98.83783 33835 ft 459 kts 259°
2026-05-04 09:02 13.54055 98.77279 33839 ft 465 kts 259°
2026-05-04 09:02 13.52828 98.70707 33824 ft 470 kts 259°
2026-05-04 09:03 13.51591 98.64084 33841 ft 474 kts 259°
2026-05-04 09:03 13.50345 98.57439 33831 ft 476 kts 259°
2026-05-04 09:04 13.49081 98.50728 33834 ft 480 kts 258°
2026-05-04 09:04 13.47765 98.44077 33821 ft 470 kts 258°
2026-05-04 09:05 13.46440 98.37482 33823 ft 471 kts 258°
2026-05-04 09:05 13.45124 98.30869 33827 ft 473 kts 258°
2026-05-04 09:06 13.43805 98.24238 33824 ft 474 kts 258°
2026-05-04 09:08 13.38522 97.97721 33818 ft 474 kts 258°
2026-05-04 09:08 13.37200 97.91091 33824 ft 473 kts 258°
2026-05-04 09:09 13.35875 97.84475 33823 ft 473 kts 258°
2026-05-04 09:09 13.34550 97.77865 33824 ft 472 kts 258°
2026-05-04 09:10 13.33223 97.71246 33818 ft 473 kts 258°
2026-05-04 09:10 13.31895 97.64632 33814 ft 475 kts 259°
2026-05-04 09:11 13.30553 97.57962 33833 ft 479 kts 259°
2026-05-04 09:11 13.29205 97.51270 33833 ft 483 kts 259°
2026-05-04 09:12 13.27835 97.44481 33828 ft 486 kts 258°
2026-05-04 09:14 13.22343 97.17349 33822 ft 483 kts 258°
2026-05-04 09:14 13.20973 97.10602 33824 ft 482 kts 258°
2026-05-04 09:15 13.19603 97.03875 33824 ft 480 kts 258°
2026-05-04 09:15 13.18235 96.97166 33822 ft 479 kts 258°
2026-05-04 09:17 13.12082 96.67070 33831 ft 479 kts 258°
2026-05-04 09:18 13.10706 96.60368 33822 ft 480 kts 258°
2026-05-04 09:18 13.09337 96.53712 33824 ft 480 kts 258°
2026-05-04 09:19 13.07956 96.47003 33824 ft 481 kts 258°
2026-05-04 09:19 13.06574 96.40293 33825 ft 481 kts 258°
2026-05-04 09:20 13.05188 96.33579 33823 ft 481 kts 258°
2026-05-04 09:20 13.03801 96.26865 33819 ft 481 kts 258°
2026-05-04 09:21 13.02411 96.20147 33813 ft 481 kts 258°
2026-05-04 09:21 13.01022 96.13443 33815 ft 481 kts 258°
2026-05-04 09:22 12.99637 96.06773 33819 ft 481 kts 258°
2026-05-04 09:22 12.98242 96.00064 33825 ft 481 kts 258°
2026-05-04 09:23 12.96848 95.93362 33825 ft 480 kts 258°
2026-05-04 09:23 12.95452 95.86664 33823 ft 480 kts 258°
2026-05-04 09:25 12.89859 95.59895 33824 ft 480 kts 258°
2026-05-04 09:26 12.88463 95.53241 33824 ft 480 kts 258°
2026-05-04 09:26 12.86771 95.46621 33834 ft 480 kts 250°
2026-05-04 09:27 12.84088 95.40347 33834 ft 480 kts 245°
2026-05-04 09:27 12.81251 95.34142 33823 ft 480 kts 245°
2026-05-04 09:28 12.78436 95.27918 33825 ft 481 kts 245°
2026-05-04 09:28 12.75661 95.21735 33824 ft 481 kts 245°
2026-05-04 09:29 12.72869 95.15509 33821 ft 481 kts 245°
2026-05-04 09:29 12.70073 95.09281 33825 ft 481 kts 245°
2026-05-04 09:30 12.67273 95.03052 33823 ft 481 kts 245°
2026-05-04 09:30 12.64475 94.96827 33823 ft 481 kts 245°
2026-05-04 09:31 12.61675 94.90599 33824 ft 480 kts 245°
2026-05-04 09:31 12.58892 94.84422 33824 ft 481 kts 245°
2026-05-04 09:32 12.56087 94.78200 33824 ft 481 kts 245°
2026-05-04 09:34 12.44877 94.53367 33826 ft 481 kts 245°
2026-05-04 09:34 12.42063 94.47141 33822 ft 481 kts 245°
2026-05-04 09:35 12.39254 94.40938 33825 ft 481 kts 245°
2026-05-04 09:35 12.36453 94.34724 33823 ft 480 kts 245°
2026-05-04 09:37 12.25261 94.09880 33836 ft 481 kts 245°
2026-05-04 09:38 12.22472 94.03703 33831 ft 482 kts 245°
2026-05-04 09:38 12.19686 93.97474 33831 ft 482 kts 246°
2026-05-04 09:39 12.16925 93.91231 33832 ft 482 kts 246°
2026-05-04 09:39 12.14161 93.84988 33830 ft 482 kts 246°
2026-05-04 09:40 12.11394 93.78751 33832 ft 482 kts 246°
2026-05-04 09:40 12.08615 93.72500 33831 ft 482 kts 245°
2026-05-04 09:42 11.97537 93.47619 33832 ft 482 kts 245°
2026-05-04 09:43 11.94758 93.41384 33834 ft 482 kts 245°
2026-05-04 09:43 11.91975 93.35150 33834 ft 483 kts 245°
2026-05-04 09:44 11.89660 93.29968 33831 ft 483 kts 245°
2026-05-04 09:46 11.78502 93.05022 33834 ft 483 kts 245°
2026-05-04 09:46 11.75709 92.98787 33834 ft 483 kts 245°
2026-05-04 09:47 11.72913 92.92550 33833 ft 483 kts 245°
2026-05-04 09:49 11.65532 92.70095 33827 ft 485 kts 272°
2026-05-04 09:49 11.65913 92.66679 33839 ft 484 kts 277°
2026-05-04 09:51 11.69612 92.42835 33832 ft 487 kts 277°
2026-05-04 09:51 11.70609 92.35994 33833 ft 487 kts 277°
2026-05-04 09:52 11.71608 92.29159 33832 ft 487 kts 277°
2026-05-04 09:52 11.72608 92.22326 33834 ft 487 kts 277°
2026-05-04 09:53 11.73602 92.15529 33832 ft 487 kts 277°
2026-05-04 09:53 11.74603 92.08685 33832 ft 487 kts 277°
2026-05-04 09:54 11.75597 92.01839 33833 ft 487 kts 277°
2026-05-04 09:54 11.76593 91.95005 33830 ft 487 kts 277°
2026-05-04 09:55 11.77583 91.88174 33833 ft 486 kts 277°
2026-05-04 09:55 11.78574 91.81339 33830 ft 487 kts 277°
2026-05-04 09:56 11.79561 91.74505 33833 ft 487 kts 277°
2026-05-04 09:56 11.80542 91.67718 33832 ft 487 kts 277°
2026-05-04 09:57 11.81527 91.60889 33833 ft 486 kts 277°
2026-05-04 09:57 11.82510 91.54060 33835 ft 486 kts 277°
2026-05-04 09:58 11.83490 91.47224 33832 ft 486 kts 277°
2026-05-04 09:58 11.84473 91.40386 33826 ft 486 kts 277°
2026-05-04 10:00 11.87653 91.13015 33823 ft 484 kts 274°
2026-05-04 10:04 11.92207 90.65259 33823 ft 482 kts 274°
2026-05-04 10:04 11.92855 90.58453 33824 ft 482 kts 274°
2026-05-04 10:05 11.93500 90.51647 33824 ft 481 kts 274°
2026-05-04 10:05 11.94143 90.44853 33825 ft 481 kts 274°
2026-05-04 10:06 11.94780 90.38101 33823 ft 481 kts 275°
2026-05-04 10:06 11.95421 90.31302 33825 ft 480 kts 274°
2026-05-04 10:08 11.97642 90.07522 33825 ft 480 kts 274°
2026-05-04 10:08 11.98275 90.00732 33824 ft 481 kts 274°
2026-05-04 10:09 11.98906 89.93933 33825 ft 480 kts 274°
2026-05-04 10:09 11.99529 89.87181 33820 ft 480 kts 274°
2026-05-04 10:10 12.00154 89.80382 33824 ft 480 kts 274°
2026-05-04 10:10 12.00779 89.73592 33824 ft 480 kts 274°
2026-05-04 10:11 12.01405 89.66789 33826 ft 481 kts 274°
2026-05-04 10:11 12.02028 89.59993 33824 ft 480 kts 274°
2026-05-04 10:12 12.02644 89.53239 33823 ft 480 kts 274°
2026-05-04 10:12 12.03262 89.46444 33821 ft 480 kts 274°
2026-05-04 10:13 12.03879 89.39644 33814 ft 481 kts 274°
2026-05-04 10:13 12.04496 89.32842 33814 ft 481 kts 274°
2026-05-04 10:14 12.05107 89.26038 33816 ft 481 kts 274°
2026-05-04 10:16 12.07552 88.98798 33815 ft 483 kts 274°
2026-05-04 10:16 12.08160 88.91956 33813 ft 484 kts 274°
2026-05-04 10:17 12.08768 88.85101 33815 ft 484 kts 274°
2026-05-04 10:19 12.11471 88.57682 33808 ft 487 kts 276°
2026-05-04 10:19 12.12318 88.50817 33805 ft 487 kts 276°
2026-05-04 10:20 12.13143 88.43943 33806 ft 488 kts 275°
2026-05-04 10:20 12.13950 88.37052 33804 ft 487 kts 275°
2026-05-04 10:21 12.14758 88.30160 33806 ft 488 kts 275°
2026-05-04 10:21 12.15560 88.23271 33805 ft 488 kts 275°
2026-05-04 10:22 12.16754 88.12983 33805 ft 488 kts 275°
2026-05-04 10:23 12.17558 88.06085 33805 ft 488 kts 275°
2026-05-04 10:25 12.20747 87.78477 33795 ft 489 kts 275°
2026-05-04 10:25 12.21540 87.71584 33796 ft 488 kts 275°
2026-05-04 10:26 12.22327 87.64689 33797 ft 488 kts 275°
2026-05-04 10:26 12.23113 87.57789 33797 ft 488 kts 275°
2026-05-04 10:27 12.23901 87.50892 33796 ft 488 kts 275°
2026-05-04 10:27 12.24686 87.43997 33793 ft 488 kts 275°
2026-05-04 10:28 12.25458 87.37164 33800 ft 487 kts 275°
2026-05-04 10:28 12.26241 87.30275 33795 ft 487 kts 275°
2026-05-04 10:29 12.27021 87.23390 33797 ft 487 kts 275°
2026-05-04 10:29 12.27797 87.16491 33796 ft 487 kts 275°
2026-05-04 10:30 12.28569 87.09639 33797 ft 487 kts 275°
2026-05-04 10:30 12.29342 87.02755 33798 ft 488 kts 275°
2026-05-04 10:31 12.30113 86.95869 33795 ft 487 kts 275°
2026-05-04 10:32 12.32671 86.72890 33787 ft 489 kts 275°
2026-05-04 10:33 12.33440 86.65984 33785 ft 489 kts 275°
2026-05-04 10:33 12.34205 86.59070 33786 ft 489 kts 275°
2026-05-04 10:34 12.34960 86.52197 33787 ft 489 kts 275°
2026-05-04 10:34 12.35723 86.45281 33786 ft 489 kts 275°
2026-05-04 10:35 12.36483 86.38364 33788 ft 489 kts 275°
2026-05-04 10:35 12.37242 86.31452 33785 ft 489 kts 275°
2026-05-04 10:36 12.37999 86.24541 33764 ft 489 kts 275°
2026-05-04 10:36 12.38750 86.17622 33769 ft 490 kts 275°
2026-05-04 10:37 12.39502 86.10702 33770 ft 490 kts 275°
2026-05-04 10:37 12.40256 86.03772 33762 ft 489 kts 275°
2026-05-04 10:39 12.42866 85.79587 33761 ft 488 kts 275°
2026-05-04 10:40 12.43608 85.72678 33760 ft 488 kts 275°
2026-05-04 10:40 12.44349 85.65764 33758 ft 488 kts 275°
2026-05-04 10:41 12.45087 85.58872 33750 ft 488 kts 275°
2026-05-04 10:41 12.45823 85.51970 33762 ft 488 kts 275°
2026-05-04 10:42 12.46549 85.45109 33757 ft 488 kts 275°
2026-05-04 10:42 12.47281 85.38206 33756 ft 488 kts 275°
2026-05-04 10:43 12.48014 85.31302 33760 ft 488 kts 275°
2026-05-04 10:45 12.50917 85.03703 33753 ft 487 kts 275°
2026-05-04 10:45 12.51637 84.96810 33739 ft 487 kts 275°
2026-05-04 10:46 12.52355 84.89927 33751 ft 486 kts 275°
2026-05-04 10:46 12.53071 84.83044 33752 ft 486 kts 275°
2026-05-04 10:47 12.53780 84.76204 33751 ft 487 kts 274°
2026-05-04 10:47 12.54491 84.69306 33744 ft 487 kts 275°
2026-05-04 10:49 12.57330 84.41718 33752 ft 487 kts 274°
2026-05-04 10:50 12.58036 84.34816 33749 ft 487 kts 274°
2026-05-04 10:52 12.60840 84.07209 33759 ft 488 kts 274°
2026-05-04 10:52 12.61536 84.00289 33751 ft 489 kts 274°
2026-05-04 10:54 12.64308 83.72647 33741 ft 487 kts 274°
2026-05-04 10:56 12.67065 83.45168 33741 ft 485 kts 274°
2026-05-04 10:57 12.67774 83.38298 33742 ft 485 kts 274°
2026-05-04 10:57 12.68479 83.31426 33739 ft 485 kts 274°
2026-05-04 10:58 12.69177 83.24601 33741 ft 485 kts 274°
2026-05-04 10:58 12.69874 83.17727 33742 ft 485 kts 274°
2026-05-04 10:59 12.70570 83.10852 33741 ft 484 kts 274°
2026-05-04 10:59 12.71264 83.03993 33742 ft 484 kts 274°
2026-05-04 11:00 12.71954 82.97134 33740 ft 484 kts 274°
2026-05-04 11:02 12.74700 82.69765 33739 ft 483 kts 273°
2026-05-04 11:05 12.79766 82.18433 33740 ft 483 kts 273°
2026-05-04 11:06 12.80433 82.11587 33733 ft 483 kts 273°
2026-05-04 11:06 12.81100 82.04733 33742 ft 483 kts 273°
2026-05-04 11:10 12.85712 81.56824 33733 ft 482 kts 273°
2026-05-04 11:12 12.88304 81.29497 33732 ft 482 kts 273°
2026-05-04 11:12 12.88948 81.22657 33731 ft 482 kts 273°
2026-05-04 11:13 12.89588 81.15808 33733 ft 482 kts 273°
2026-05-04 11:13 12.90232 81.08967 33731 ft 482 kts 273°
2026-05-04 11:16 12.93403 80.74801 33722 ft 482 kts 273°
2026-05-04 11:16 12.94034 80.67957 33721 ft 482 kts 273°
2026-05-04 11:17 12.94661 80.61112 33722 ft 482 kts 273°
2026-05-04 11:19 12.97154 80.33740 33722 ft 482 kts 273°
2026-05-04 11:19 12.97773 80.26903 33722 ft 482 kts 273°
2026-05-04 11:20 12.98387 80.20095 33720 ft 482 kts 273°
2026-05-04 11:20 12.99007 80.13236 33746 ft 483 kts 273°
2026-05-04 11:22 13.01154 79.90482 34794 ft 480 kts 273°
2026-05-04 11:22 13.01475 79.87078 34903 ft 480 kts 273°
2026-05-04 11:23 13.01793 79.83669 35044 ft 480 kts 273°
2026-05-04 11:23 13.02112 79.80260 35191 ft 480 kts 273°
2026-05-04 11:24 13.04007 79.59851 35746 ft 481 kts 273°
2026-05-04 11:25 13.04323 79.56429 35745 ft 481 kts 273°
2026-05-04 11:25 13.04953 79.49601 35749 ft 480 kts 273°
2026-05-04 11:27 13.07754 79.18982 35740 ft 479 kts 273°
2026-05-04 11:28 13.08371 79.12183 35747 ft 479 kts 273°
2026-05-04 11:28 13.08989 79.05362 35755 ft 479 kts 273°
2026-05-04 11:29 13.09600 78.98596 35769 ft 479 kts 273°
2026-05-04 11:29 13.10212 78.91782 35780 ft 479 kts 273°
2026-05-04 11:33 13.14448 78.44132 35845 ft 480 kts 273°
2026-05-04 11:33 13.15046 78.37312 35852 ft 479 kts 273°
2026-05-04 11:34 13.15643 78.30498 35874 ft 479 kts 273°
2026-05-04 11:34 13.16236 78.23690 35882 ft 479 kts 273°
2026-05-04 11:35 13.16823 78.16928 35889 ft 479 kts 273°
2026-05-04 11:35 13.17414 78.10123 35891 ft 479 kts 273°
2026-05-04 11:36 13.18003 78.03308 35897 ft 480 kts 273°
2026-05-04 11:36 13.18592 77.96482 35903 ft 480 kts 273°
2026-05-04 11:37 13.19178 77.89660 35908 ft 479 kts 273°
2026-05-04 11:37 13.19763 77.82833 35907 ft 479 kts 273°
2026-05-04 11:38 13.20345 77.76019 35907 ft 479 kts 273°
2026-05-04 11:38 13.20821 77.69248 35908 ft 478 kts 269°
2026-05-04 11:39 13.20418 77.62467 35920 ft 476 kts 263°
2026-05-04 11:41 13.18408 77.38748 35910 ft 477 kts 264°
2026-05-04 11:41 13.17857 77.31961 35907 ft 477 kts 264°
2026-05-04 11:42 13.17303 77.25170 35908 ft 477 kts 264°
2026-05-04 11:42 13.16745 77.18376 35909 ft 477 kts 264°
2026-05-04 11:43 13.16187 77.11586 35906 ft 478 kts 264°
2026-05-04 11:43 13.15626 77.04801 35907 ft 477 kts 264°
2026-05-04 11:44 13.15065 76.98058 35907 ft 477 kts 264°
2026-05-04 11:44 13.14502 76.91275 35904 ft 478 kts 264°
2026-05-04 11:45 13.13935 76.84479 35899 ft 478 kts 264°
2026-05-04 11:45 13.13367 76.77684 35898 ft 478 kts 264°
2026-05-04 11:46 13.12795 76.70891 35898 ft 478 kts 264°
2026-05-04 11:46 13.12223 76.64100 35891 ft 478 kts 264°
2026-05-04 11:47 13.11651 76.57311 35877 ft 477 kts 264°
2026-05-04 11:47 13.11073 76.50528 35873 ft 477 kts 264°
2026-05-04 11:48 13.10501 76.43785 35875 ft 477 kts 264°
2026-05-04 11:48 13.09922 76.37002 35873 ft 477 kts 264°
2026-05-04 11:49 13.09341 76.30216 35869 ft 478 kts 264°
2026-05-04 11:49 13.08759 76.23423 35866 ft 478 kts 264°
2026-05-04 11:50 13.08174 76.16618 35864 ft 478 kts 264°
2026-05-04 11:50 13.07587 76.09826 35854 ft 478 kts 264°
2026-05-04 11:51 13.06997 76.03037 35861 ft 478 kts 264°
2026-05-04 11:51 13.06329 75.96257 35851 ft 478 kts 263°
2026-05-04 11:52 13.05627 75.89514 35842 ft 478 kts 263°
2026-05-04 11:52 13.04928 75.82714 35856 ft 479 kts 263°
2026-05-04 11:53 13.04237 75.75915 35854 ft 479 kts 263°
2026-05-04 11:53 13.03545 75.69115 35850 ft 480 kts 263°
2026-05-04 11:55 13.00752 75.41863 35816 ft 482 kts 263°
2026-05-04 11:56 13.00045 75.35020 35814 ft 481 kts 263°
2026-05-04 11:56 12.99342 75.28208 35810 ft 480 kts 263°
2026-05-04 11:57 12.98635 75.21383 35804 ft 480 kts 263°
2026-05-04 11:57 12.97926 75.14580 35804 ft 480 kts 263°
2026-05-04 11:58 12.97218 75.07775 35806 ft 480 kts 263°
2026-05-04 11:58 12.96507 75.00968 35808 ft 480 kts 263°
2026-05-04 11:59 12.95798 74.94188 35804 ft 481 kts 263°
2026-05-04 11:59 12.95079 74.87377 35804 ft 481 kts 263°
2026-05-04 12:00 12.94283 74.80564 35806 ft 481 kts 262°
2026-05-04 12:00 12.93453 74.73747 35805 ft 482 kts 262°
2026-05-04 12:01 12.92628 74.66922 35806 ft 482 kts 262°
2026-05-04 12:02 12.89761 74.43045 35808 ft 483 kts 262°
2026-05-04 12:03 12.88936 74.36194 35805 ft 484 kts 262°
2026-05-04 12:03 12.88115 74.29396 35803 ft 484 kts 262°
2026-05-04 12:04 12.87284 74.22543 35794 ft 484 kts 262°
2026-05-04 12:04 12.86451 74.15698 35795 ft 484 kts 262°
2026-05-04 12:05 12.85619 74.08854 35797 ft 484 kts 262°
2026-05-04 12:05 12.84784 74.02003 35800 ft 485 kts 262°
2026-05-04 12:06 12.83946 73.95149 35798 ft 485 kts 262°
2026-05-04 12:06 12.83105 73.88292 35794 ft 485 kts 262°
2026-05-04 12:07 12.82264 73.81429 35796 ft 485 kts 262°
2026-05-04 12:07 12.81419 73.74564 35803 ft 486 kts 262°
2026-05-04 12:08 12.80714 73.68846 35806 ft 486 kts 262°
2026-05-04 12:08 12.79729 73.60866 35805 ft 486 kts 262°
2026-05-04 12:09 12.78878 73.53995 35808 ft 486 kts 262°
2026-05-04 12:09 12.78171 73.48284 35807 ft 486 kts 262°
2026-05-04 12:10 12.77304 73.41411 35806 ft 486 kts 262°
2026-05-04 12:10 12.76396 73.34551 35806 ft 486 kts 262°
2026-05-04 12:11 12.75485 73.27709 35801 ft 484 kts 262°
2026-05-04 12:11 12.74580 73.20881 35804 ft 484 kts 262°
2026-05-04 12:12 12.73675 73.14050 35806 ft 484 kts 262°
2026-05-04 12:12 12.72770 73.07211 35805 ft 484 kts 262°
2026-05-04 12:14 12.69131 72.79919 35807 ft 485 kts 262°
2026-05-04 12:15 12.68215 72.73076 35805 ft 485 kts 262°
2026-05-04 12:15 12.67295 72.66219 35808 ft 486 kts 262°
2026-05-04 12:16 12.66372 72.59359 35802 ft 487 kts 262°
2026-05-04 12:16 12.65448 72.52492 35806 ft 487 kts 262°
2026-05-04 12:17 12.64520 72.45625 35808 ft 487 kts 262°
2026-05-04 12:17 12.63591 72.38754 35816 ft 487 kts 262°
2026-05-04 12:18 12.62658 72.31881 35814 ft 488 kts 262°
2026-05-04 12:18 12.61723 72.25003 35815 ft 487 kts 262°
2026-05-04 12:19 12.60795 72.18176 35815 ft 487 kts 262°
2026-05-04 12:19 12.59858 72.11306 35819 ft 487 kts 262°
2026-05-04 12:20 12.58921 72.04441 35825 ft 487 kts 262°
2026-05-04 12:20 12.57981 71.97568 35820 ft 488 kts 262°
2026-05-04 12:21 12.57059 71.90694 35825 ft 488 kts 262°
2026-05-04 12:21 12.56139 71.83804 35824 ft 488 kts 262°
2026-05-04 12:22 12.55217 71.76909 35825 ft 489 kts 262°
2026-05-04 12:22 12.54287 71.70014 35822 ft 489 kts 262°
2026-05-04 12:23 12.53360 71.63120 35824 ft 489 kts 262°
2026-05-04 12:23 12.52431 71.56273 35825 ft 489 kts 262°
2026-05-04 12:24 12.51497 71.49378 35824 ft 489 kts 262°
2026-05-04 12:24 12.50563 71.42482 35823 ft 489 kts 262°
2026-05-04 12:25 12.49625 71.35589 35825 ft 489 kts 262°
2026-05-04 12:25 12.48685 71.28691 35822 ft 489 kts 262°
2026-05-04 12:26 12.47751 71.21800 35823 ft 489 kts 262°
2026-05-04 12:26 12.46856 71.14899 35823 ft 489 kts 262°
2026-05-04 12:27 12.45970 71.07996 35821 ft 489 kts 262°
2026-05-04 12:27 12.45080 71.01090 35825 ft 490 kts 263°
2026-05-04 12:28 12.44184 70.94179 35825 ft 490 kts 262°
2026-05-04 12:28 12.43282 70.87258 35824 ft 490 kts 262°
2026-05-04 12:29 12.42377 70.80337 35824 ft 491 kts 262°
2026-05-04 12:29 12.41471 70.73407 35823 ft 491 kts 262°
2026-05-04 12:30 12.40563 70.66477 35824 ft 492 kts 262°
2026-05-04 12:30 12.39659 70.59583 35826 ft 492 kts 263°
2026-05-04 12:31 12.38745 70.52646 35824 ft 492 kts 263°
2026-05-04 12:31 12.37830 70.45708 35825 ft 493 kts 263°
2026-05-04 12:32 12.36452 70.35283 35825 ft 493 kts 263°
2026-05-04 12:33 12.35531 70.28333 35823 ft 493 kts 262°
2026-05-04 12:33 12.34610 70.21386 35824 ft 493 kts 262°
2026-05-04 12:34 12.33685 70.14437 35826 ft 493 kts 262°
2026-05-04 12:34 12.32762 70.07484 35822 ft 494 kts 263°
2026-05-04 12:35 12.31842 70.00522 35825 ft 494 kts 262°
2026-05-04 12:35 12.30919 69.93571 35823 ft 493 kts 262°
2026-05-04 12:36 12.29991 69.86624 35825 ft 493 kts 262°
2026-05-04 12:36 12.29064 69.79675 35824 ft 493 kts 263°
2026-05-04 12:37 12.28139 69.72764 35823 ft 494 kts 263°
2026-05-04 12:37 12.27208 69.65808 35825 ft 494 kts 262°
2026-05-04 12:38 12.26271 69.58845 35821 ft 494 kts 262°
2026-05-04 12:38 12.25333 69.51880 35814 ft 494 kts 262°
2026-05-04 12:39 12.24400 69.44957 35815 ft 494 kts 262°
2026-05-04 12:39 12.23461 69.37996 35815 ft 494 kts 262°
2026-05-04 12:40 12.22520 69.31033 35816 ft 495 kts 262°
2026-05-04 12:40 12.21573 69.24060 35812 ft 494 kts 262°
2026-05-04 12:41 12.20629 69.17094 35815 ft 494 kts 262°
2026-05-04 12:41 12.19681 69.10131 35816 ft 495 kts 262°
2026-05-04 12:42 12.18733 69.03157 35815 ft 494 kts 263°
2026-05-04 12:42 12.17792 68.96234 35815 ft 495 kts 262°
2026-05-04 12:43 12.16859 68.89258 35814 ft 495 kts 263°
2026-05-04 12:43 12.15930 68.82279 35815 ft 496 kts 263°
2026-05-04 12:44 12.14996 68.75285 35814 ft 496 kts 263°
2026-05-04 12:44 12.14054 68.68277 35816 ft 497 kts 262°
2026-05-04 12:45 12.13113 68.61285 35813 ft 497 kts 262°
2026-05-04 12:45 12.12178 68.54330 35815 ft 497 kts 262°
2026-05-04 12:46 12.11233 68.47325 35814 ft 497 kts 262°
2026-05-04 12:46 12.10285 68.40323 35815 ft 498 kts 262°
2026-05-04 12:47 12.09334 68.33304 35806 ft 498 kts 262°
2026-05-04 12:47 12.08381 68.26294 35804 ft 498 kts 262°
2026-05-04 12:48 12.07429 68.19291 35807 ft 498 kts 262°
2026-05-04 12:48 12.06474 68.12285 35804 ft 498 kts 262°
2026-05-04 12:49 12.05519 68.05280 35809 ft 498 kts 262°
2026-05-04 12:49 12.04567 67.98325 35816 ft 498 kts 262°
2026-05-04 12:50 12.03606 67.91318 35815 ft 498 kts 262°
2026-05-04 12:50 12.02643 67.84316 35815 ft 498 kts 262°
2026-05-04 12:51 12.01678 67.77306 35813 ft 497 kts 262°
2026-05-04 12:51 12.00713 67.70305 35814 ft 497 kts 262°
2026-05-04 12:52 11.99748 67.63304 35815 ft 497 kts 262°
2026-05-04 12:52 11.98787 67.56360 35812 ft 497 kts 262°
2026-05-04 12:53 11.97818 67.49366 35815 ft 497 kts 262°
2026-05-04 12:53 11.96848 67.42380 35815 ft 497 kts 262°
2026-05-04 12:54 11.95554 67.35442 35803 ft 497 kts 254°
2026-05-04 12:54 11.93227 67.28794 35811 ft 497 kts 249°
2026-05-04 12:55 11.90759 67.22198 35806 ft 498 kts 249°
2026-05-04 12:55 11.88316 67.15581 35804 ft 498 kts 250°
2026-05-04 12:56 11.86304 67.10074 35805 ft 498 kts 250°
2026-05-04 12:56 11.83888 67.03439 35805 ft 498 kts 250°
2026-05-04 12:57 11.81080 66.95730 35807 ft 498 kts 250°
2026-05-04 12:57 11.79072 66.90214 35814 ft 498 kts 250°
2026-05-04 12:58 11.76652 66.83585 35815 ft 498 kts 250°
2026-05-04 12:58 11.74235 66.76965 35814 ft 497 kts 250°
2026-05-04 12:59 11.71817 66.70349 35815 ft 498 kts 250°
2026-05-04 12:59 11.69392 66.63728 35814 ft 498 kts 250°
2026-05-04 13:00 11.66963 66.57096 35815 ft 498 kts 250°
2026-05-04 13:00 11.64535 66.50468 35807 ft 499 kts 250°
2026-05-04 13:01 11.62099 66.43829 35807 ft 500 kts 250°
2026-05-04 13:01 11.59675 66.37227 35806 ft 500 kts 250°
2026-05-04 13:02 11.57233 66.30578 35804 ft 499 kts 250°
2026-05-04 13:02 11.54793 66.23941 35805 ft 499 kts 250°
2026-05-04 13:03 11.52354 66.17314 35806 ft 499 kts 250°
2026-05-04 13:03 11.49930 66.10726 35805 ft 499 kts 250°
2026-05-04 13:04 11.47490 66.04107 35803 ft 498 kts 250°
2026-05-04 13:04 11.45048 65.97493 35806 ft 498 kts 250°
2026-05-04 13:05 11.42610 65.90883 35805 ft 498 kts 249°
2026-05-04 13:05 11.40168 65.84273 35806 ft 498 kts 249°
2026-05-04 13:06 11.37721 65.77656 35807 ft 499 kts 249°
2026-05-04 13:06 11.35274 65.71034 35806 ft 499 kts 249°
2026-05-04 13:07 11.32821 65.64415 35805 ft 499 kts 249°
2026-05-04 13:07 11.30384 65.57843 35805 ft 499 kts 249°
2026-05-04 13:08 11.27932 65.51225 35806 ft 499 kts 249°
2026-05-04 13:08 11.25477 65.44609 35804 ft 499 kts 249°
2026-05-04 13:09 11.23024 65.38002 35807 ft 498 kts 249°
2026-05-04 13:09 11.20569 65.31401 35805 ft 498 kts 249°
2026-05-04 13:10 11.18115 65.24810 35805 ft 498 kts 249°
2026-05-04 13:10 11.15660 65.18209 35806 ft 498 kts 249°
2026-05-04 13:11 11.13207 65.11621 35805 ft 497 kts 249°
2026-05-04 13:11 11.10752 65.05032 35806 ft 498 kts 249°
2026-05-04 13:12 11.08305 64.98479 35806 ft 498 kts 249°
2026-05-04 13:12 11.05844 64.91884 35806 ft 498 kts 249°
2026-05-04 13:13 11.03381 64.85288 35806 ft 498 kts 249°
2026-05-04 13:13 11.00928 64.78685 35804 ft 498 kts 249°
2026-05-04 13:14 10.98498 64.72085 35806 ft 498 kts 249°
2026-05-04 13:14 10.96083 64.65523 35807 ft 498 kts 249°
2026-05-04 13:15 10.93651 64.58931 35806 ft 498 kts 249°
2026-05-04 13:15 10.91216 64.52335 35812 ft 497 kts 249°
2026-05-04 13:16 10.88784 64.45750 35814 ft 497 kts 249°
2026-05-04 13:16 10.86343 64.39158 35815 ft 498 kts 249°
2026-05-04 13:17 10.83902 64.32567 35815 ft 498 kts 249°
2026-05-04 13:17 10.81461 64.25970 35815 ft 498 kts 249°
2026-05-04 13:18 10.79032 64.19422 35815 ft 498 kts 249°
2026-05-04 13:18 10.76581 64.12823 35813 ft 498 kts 249°
2026-05-04 13:19 10.74130 64.06217 35815 ft 498 kts 249°
2026-05-04 13:19 10.71687 63.99634 35813 ft 497 kts 249°
2026-05-04 13:20 10.69239 63.93053 35813 ft 497 kts 249°
2026-05-04 13:20 10.66791 63.86477 35815 ft 498 kts 249°
2026-05-04 13:21 10.64354 63.79933 35815 ft 498 kts 249°
2026-05-04 13:21 10.61890 63.73323 35816 ft 499 kts 249°
2026-05-04 13:22 10.59427 63.66718 35814 ft 499 kts 249°
2026-05-04 13:22 10.56964 63.60117 35815 ft 500 kts 249°
2026-05-04 13:23 10.54497 63.53511 35816 ft 500 kts 249°
2026-05-04 13:23 10.52044 63.46947 35814 ft 500 kts 249°
2026-05-04 13:24 10.49574 63.40344 35815 ft 500 kts 249°
2026-05-04 13:24 10.47103 63.33737 35814 ft 500 kts 249°
2026-05-04 13:25 10.43394 63.23837 35816 ft 499 kts 249°
2026-05-04 13:25 10.40921 63.17244 35814 ft 499 kts 249°
2026-05-04 13:26 10.38449 63.10656 35814 ft 499 kts 249°
2026-05-04 13:26 10.35978 63.04073 35814 ft 498 kts 249°
2026-05-04 13:27 10.33507 62.97495 35813 ft 499 kts 249°
2026-05-04 13:27 10.31048 62.90958 35814 ft 499 kts 249°
2026-05-04 13:28 10.28572 62.84379 35816 ft 499 kts 249°
2026-05-04 13:28 10.26089 62.77787 35814 ft 500 kts 249°
2026-05-04 13:29 10.23607 62.71183 35808 ft 500 kts 249°
2026-05-04 13:29 10.21118 62.64579 35804 ft 500 kts 249°
2026-05-04 13:30 10.18625 62.57976 35804 ft 500 kts 249°
2026-05-04 13:30 10.16150 62.51424 35805 ft 500 kts 249°
2026-05-04 13:31 10.13664 62.44834 35806 ft 500 kts 249°
2026-05-04 13:31 10.11167 62.38233 35807 ft 500 kts 249°
2026-05-04 13:32 10.08674 62.31648 35806 ft 500 kts 249°
2026-05-04 13:32 10.06183 62.25067 35805 ft 499 kts 249°
2026-05-04 13:33 10.03691 62.18485 35804 ft 499 kts 249°
2026-05-04 13:33 10.01196 62.11910 35804 ft 499 kts 249°
2026-05-04 13:34 9.98716 62.05372 35807 ft 499 kts 249°
2026-05-04 13:34 9.96219 61.98793 35807 ft 499 kts 249°
2026-05-04 13:35 9.92474 61.88928 35805 ft 499 kts 249°
2026-05-04 13:36 9.89975 61.82354 35805 ft 499 kts 249°
2026-05-04 13:36 9.87492 61.75829 35806 ft 499 kts 249°
2026-05-04 13:37 9.84973 61.69211 35805 ft 499 kts 249°
2026-05-04 13:37 9.82487 61.62689 35814 ft 499 kts 249°
2026-05-04 13:38 9.79984 61.56119 35824 ft 499 kts 249°
2026-05-04 13:38 9.77474 61.49545 35824 ft 500 kts 249°
2026-05-04 13:39 9.74962 61.42968 35816 ft 500 kts 249°
2026-05-04 13:39 9.72452 61.36390 35826 ft 500 kts 248°
2026-05-04 13:40 9.69942 61.29822 35823 ft 500 kts 248°
2026-05-04 13:40 9.67432 61.23258 35824 ft 500 kts 248°
2026-05-04 13:41 9.64920 61.16691 35824 ft 500 kts 248°
2026-05-04 13:41 9.62403 61.10120 35824 ft 499 kts 248°
2026-05-04 13:42 9.58636 61.00285 35825 ft 499 kts 248°
2026-05-04 13:42 9.56135 60.93766 35827 ft 500 kts 248°
2026-05-04 13:43 9.53615 60.87205 35824 ft 500 kts 248°
2026-05-04 13:43 9.51095 60.80644 35823 ft 499 kts 248°
2026-05-04 13:44 9.48577 60.74088 35823 ft 499 kts 248°
2026-05-04 13:44 9.46053 60.67530 35826 ft 500 kts 248°
2026-05-04 13:45 9.43530 60.60968 35823 ft 500 kts 248°
2026-05-04 13:45 9.41005 60.54409 35823 ft 500 kts 248°
2026-05-04 13:46 9.38903 60.48961 35825 ft 500 kts 248°
2026-05-04 13:46 9.36377 60.42401 35821 ft 499 kts 248°
2026-05-04 13:47 9.33854 60.35855 35824 ft 499 kts 248°
2026-05-04 13:47 9.30917 60.28247 35823 ft 499 kts 248°
2026-05-04 13:48 9.28800 60.22765 35824 ft 499 kts 248°
2026-05-04 13:48 9.26271 60.16219 35825 ft 499 kts 248°
2026-05-04 13:49 9.23742 60.09671 35825 ft 499 kts 248°
2026-05-04 13:49 9.21326 60.03127 35824 ft 499 kts 253°
2026-05-04 13:50 9.20089 59.96206 35832 ft 500 kts 265°
2026-05-04 13:50 9.20063 59.89162 35827 ft 501 kts 271°
2026-05-04 13:51 9.20258 59.82110 35815 ft 501 kts 271°
2026-05-04 13:51 9.20428 59.75054 35815 ft 501 kts 271°
2026-05-04 13:52 9.20617 59.64471 35815 ft 501 kts 270°
2026-05-04 13:53 9.20730 59.57414 35814 ft 501 kts 270°
2026-05-04 13:53 9.20845 59.50366 35815 ft 501 kts 270°
2026-05-04 13:54 9.21015 59.39784 35814 ft 501 kts 270°
2026-05-04 13:55 9.21182 59.29201 35813 ft 501 kts 270°
2026-05-04 13:55 9.21351 59.18673 35815 ft 501 kts 270°
2026-05-04 13:56 9.21458 59.11619 35815 ft 501 kts 270°
2026-05-04 13:57 9.21617 59.01041 35816 ft 501 kts 270°
2026-05-04 13:58 9.21826 58.86921 35815 ft 501 kts 270°
2026-05-04 13:58 9.21980 58.76356 35815 ft 501 kts 270°
2026-05-04 13:59 9.22080 58.69300 35814 ft 501 kts 270°
2026-05-04 14:00 9.22232 58.58719 35814 ft 501 kts 270°
2026-05-04 14:00 9.22373 58.48136 35814 ft 501 kts 270°
2026-05-04 14:01 9.22467 58.41139 35815 ft 500 kts 270°
2026-05-04 14:02 9.22608 58.30579 35814 ft 500 kts 270°
2026-05-04 14:02 9.22699 58.23539 35814 ft 500 kts 270°
2026-05-04 14:03 9.22788 58.16504 35814 ft 499 kts 270°
2026-05-04 14:03 9.22877 58.09463 35816 ft 500 kts 270°
2026-05-04 14:04 9.22995 57.98909 35814 ft 500 kts 270°
2026-05-04 14:04 9.23066 57.91868 35813 ft 501 kts 270°
2026-05-04 14:05 9.23171 57.81328 35789 ft 502 kts 270°
2026-05-04 14:06 9.23241 57.74266 35785 ft 502 kts 270°
2026-05-04 14:06 9.23310 57.67195 35785 ft 502 kts 270°
2026-05-04 14:07 9.23377 57.60130 35786 ft 501 kts 270°
2026-05-04 14:07 9.23441 57.53118 35785 ft 501 kts 270°
2026-05-04 14:08 9.23505 57.46055 35784 ft 501 kts 270°
2026-05-04 14:08 9.23568 57.39004 35788 ft 501 kts 270°
2026-05-04 14:09 9.23660 57.28425 35785 ft 501 kts 270°
2026-05-04 14:10 9.23748 57.17845 35786 ft 501 kts 270°
2026-05-04 14:10 9.23804 57.10789 35787 ft 501 kts 270°
2026-05-04 14:11 9.23861 57.03759 35792 ft 502 kts 270°
2026-05-04 14:11 9.23942 56.93146 35791 ft 503 kts 270°
2026-05-04 14:12 9.23995 56.86066 35788 ft 503 kts 270°
2026-05-04 14:13 9.24071 56.75460 35785 ft 502 kts 270°
2026-05-04 14:13 9.24121 56.68384 35788 ft 502 kts 270°
2026-05-04 14:14 9.24173 56.61362 35785 ft 502 kts 270°
2026-05-04 14:14 9.24250 56.50757 35786 ft 502 kts 270°
2026-05-04 14:15 9.24349 56.36615 35785 ft 502 kts 270°
2026-05-04 14:16 9.24417 56.26064 35789 ft 502 kts 270°
2026-05-04 14:17 9.24481 56.15467 35783 ft 502 kts 270°
2026-05-04 14:18 9.24545 56.04861 35785 ft 502 kts 270°
2026-05-04 14:19 9.24625 55.90761 35787 ft 502 kts 270°
2026-05-04 14:19 9.24662 55.83689 35791 ft 503 kts 270°
2026-05-04 14:20 9.24698 55.76609 35789 ft 503 kts 270°
2026-05-04 14:20 9.24732 55.69526 35786 ft 503 kts 270°
2026-05-04 14:21 9.24781 55.58894 35786 ft 503 kts 270°
2026-05-04 14:21 9.24813 55.51804 35786 ft 503 kts 270°
2026-05-04 14:22 9.24843 55.44725 35796 ft 503 kts 270°
2026-05-04 14:22 9.24871 55.37679 35802 ft 503 kts 270°
2026-05-04 14:23 9.24910 55.27061 35793 ft 503 kts 270°
2026-05-04 14:24 9.24936 55.19982 35796 ft 502 kts 270°
2026-05-04 14:24 9.24960 55.12909 35799 ft 502 kts 270°
2026-05-04 14:25 9.24983 55.05833 35795 ft 502 kts 270°
2026-05-04 14:25 9.25012 54.95263 35799 ft 503 kts 270°
2026-05-04 14:26 9.25030 54.88167 35799 ft 503 kts 270°
2026-05-04 14:26 9.25046 54.81079 35797 ft 504 kts 270°
2026-05-04 14:27 9.25061 54.73995 35795 ft 504 kts 270°
2026-05-04 14:27 9.25075 54.66902 35796 ft 503 kts 270°
2026-05-04 14:28 9.25085 54.59812 35799 ft 503 kts 270°
2026-05-04 14:28 9.25096 54.52734 35793 ft 503 kts 270°
2026-05-04 14:29 9.25113 54.38592 35797 ft 502 kts 270°
2026-05-04 14:30 9.25119 54.31518 35795 ft 502 kts 270°
2026-05-04 14:31 9.25125 54.20957 35796 ft 502 kts 270°
2026-05-04 14:32 9.25129 54.06789 35795 ft 502 kts 270°
2026-05-04 14:32 9.25130 53.99761 35798 ft 502 kts 270°
2026-05-04 14:33 9.25131 53.92690 35805 ft 502 kts 270°
2026-05-04 14:33 9.25128 53.85623 35807 ft 502 kts 270°
2026-05-04 14:34 9.25123 53.78549 35805 ft 502 kts 270°
2026-05-04 14:34 9.25119 53.72672 35805 ft 502 kts 270°
2026-05-04 14:35 9.25111 53.65596 35806 ft 502 kts 270°
2026-05-04 14:35 9.25104 53.58517 35804 ft 503 kts 270°
2026-05-04 14:36 9.25094 53.51434 35806 ft 503 kts 270°
2026-05-04 14:36 9.25083 53.44348 35805 ft 503 kts 270°
2026-05-04 14:37 9.25070 53.37260 35804 ft 503 kts 270°
2026-05-04 14:37 9.25058 53.30174 35797 ft 504 kts 270°
2026-05-04 14:38 9.25042 53.23078 35797 ft 504 kts 270°
2026-05-04 14:38 9.25027 53.15989 35798 ft 504 kts 270°
2026-05-04 14:39 9.25008 53.08905 35795 ft 503 kts 270°
2026-05-04 14:39 9.24988 53.01872 35799 ft 503 kts 270°
2026-05-04 14:40 9.24959 52.91255 35796 ft 502 kts 270°
2026-05-04 14:40 9.24935 52.84193 35797 ft 502 kts 270°
2026-05-04 14:41 9.24911 52.77164 35799 ft 502 kts 270°
2026-05-04 14:42 9.24859 52.63006 35799 ft 503 kts 270°
2026-05-04 14:42 9.24832 52.55918 35797 ft 503 kts 270°
2026-05-04 14:43 9.24803 52.48838 35800 ft 503 kts 270°
2026-05-04 14:43 9.24772 52.41766 35799 ft 502 kts 270°
2026-05-04 14:44 9.24737 52.34692 35798 ft 503 kts 270°
2026-05-04 14:44 9.24705 52.27664 35793 ft 502 kts 270°
2026-05-04 14:45 9.24672 52.20589 35795 ft 503 kts 270°
2026-05-04 14:45 9.24635 52.13503 35795 ft 503 kts 270°
2026-05-04 14:46 9.24597 52.06419 35794 ft 503 kts 270°
2026-05-04 14:46 9.24556 51.99337 35800 ft 503 kts 270°
2026-05-04 14:47 9.24517 51.92301 35797 ft 503 kts 270°
2026-05-04 14:47 9.24473 51.85221 35795 ft 502 kts 270°
2026-05-04 14:48 9.24430 51.78156 35794 ft 502 kts 270°
2026-05-04 14:48 9.24385 51.71089 35794 ft 502 kts 270°
2026-05-04 14:49 9.24339 51.64023 35799 ft 502 kts 270°
2026-05-04 14:49 9.24294 51.56959 35795 ft 502 kts 270°
2026-05-04 14:50 9.24246 51.49884 35788 ft 502 kts 270°
2026-05-04 14:50 9.24195 51.42817 35788 ft 502 kts 270°
2026-05-04 14:51 9.24143 51.35752 35786 ft 502 kts 270°
2026-05-04 14:51 9.24090 51.28721 35787 ft 502 kts 270°
2026-05-04 14:52 9.24036 51.21644 35785 ft 502 kts 270°
2026-05-04 14:52 9.23980 51.14570 35786 ft 503 kts 270°
2026-05-04 14:53 9.23923 51.07493 35791 ft 502 kts 270°
2026-05-04 14:53 9.23864 51.00423 35789 ft 502 kts 270°
2026-05-04 14:54 9.23806 50.93398 35783 ft 502 kts 270°
2026-05-04 14:54 9.23744 50.86332 35785 ft 502 kts 270°
2026-05-04 14:55 9.23681 50.79264 35784 ft 501 kts 270°
2026-05-04 14:55 9.23619 50.72209 35789 ft 502 kts 270°
2026-05-04 14:56 9.23554 50.65154 35791 ft 501 kts 270°
2026-05-04 14:56 9.23487 50.58094 35789 ft 502 kts 270°
2026-05-04 14:57 9.23416 50.51035 35783 ft 501 kts 270°
2026-05-04 14:57 9.23348 50.43984 35789 ft 501 kts 270°
2026-05-04 14:58 9.23279 50.36933 35785 ft 501 kts 269°
2026-05-04 14:58 9.23205 50.29881 35785 ft 501 kts 269°
2026-05-04 14:59 9.23133 50.22832 35786 ft 501 kts 269°
2026-05-04 15:00 9.23020 50.12304 35784 ft 501 kts 269°
2026-05-04 15:00 9.22943 50.05258 35786 ft 500 kts 269°
2026-05-04 15:01 9.22826 49.94685 35790 ft 501 kts 269°
2026-05-04 15:01 9.22746 49.87622 35788 ft 501 kts 269°
2026-05-04 15:02 9.22664 49.80612 35786 ft 501 kts 269°
2026-05-04 15:02 9.22581 49.73565 35789 ft 500 kts 269°
2026-05-04 15:03 9.22496 49.66519 35789 ft 500 kts 269°
2026-05-04 15:03 9.22410 49.59472 35786 ft 500 kts 269°
2026-05-04 15:04 9.22319 49.52441 35786 ft 500 kts 269°
2026-05-04 15:04 9.22228 49.45404 35785 ft 500 kts 269°
2026-05-04 15:05 9.22138 49.38414 35789 ft 500 kts 269°
2026-05-04 15:05 9.22044 49.31376 35785 ft 500 kts 269°
2026-05-04 15:06 9.21949 49.24342 35786 ft 500 kts 269°
2026-05-04 15:07 9.21803 49.13794 35785 ft 499 kts 269°
2026-05-04 15:07 9.21706 49.06767 35786 ft 499 kts 269°
2026-05-04 15:08 9.21608 48.99744 35786 ft 499 kts 269°
2026-05-04 15:08 9.21509 48.92707 35786 ft 499 kts 269°
2026-05-04 15:09 9.21409 48.85689 35790 ft 499 kts 269°
2026-05-04 15:09 9.21305 48.78666 35785 ft 499 kts 269°
2026-05-04 15:10 9.21146 48.68172 35784 ft 499 kts 269°
2026-05-04 15:11 9.20985 48.57611 35787 ft 500 kts 269°
2026-05-04 15:11 9.20876 48.50563 35786 ft 501 kts 269°
2026-05-04 15:12 9.20767 48.43518 35786 ft 501 kts 269°
2026-05-04 15:12 9.20655 48.36474 35787 ft 501 kts 269°
2026-05-04 15:13 9.20542 48.29427 35787 ft 501 kts 269°
2026-05-04 15:13 9.20426 48.22380 35786 ft 500 kts 269°
2026-05-04 15:14 9.20311 48.15337 35787 ft 500 kts 269°
2026-05-04 15:14 9.20195 48.08339 35788 ft 500 kts 269°
2026-05-04 15:15 9.20077 48.01297 35787 ft 501 kts 269°
2026-05-04 15:15 9.19957 47.94256 35789 ft 500 kts 269°
2026-05-04 15:16 9.19774 47.83706 35785 ft 499 kts 269°
2026-05-04 15:17 9.19589 47.73188 35790 ft 498 kts 269°
2026-05-04 15:17 9.19401 47.62702 35802 ft 499 kts 269°
2026-05-04 15:18 9.19275 47.55672 35795 ft 499 kts 269°
2026-05-04 15:19 9.19083 47.45137 35795 ft 499 kts 269°
2026-05-04 15:19 9.18957 47.34627 35798 ft 497 kts 273°
2026-05-04 15:20 9.19620 47.27663 35798 ft 497 kts 277°
2026-05-04 15:20 9.20415 47.20751 35794 ft 497 kts 277°
2026-05-04 15:21 9.21191 47.13807 35796 ft 497 kts 277°
2026-05-04 15:22 9.22310 47.03372 35794 ft 497 kts 276°
2026-05-04 15:22 9.23411 46.92933 35796 ft 498 kts 276°
2026-05-04 15:23 9.24148 46.85965 35799 ft 498 kts 276°
2026-05-04 15:23 9.24760 46.80171 35795 ft 497 kts 277°
2026-05-04 15:24 9.26226 46.66258 35794 ft 497 kts 277°
2026-05-04 15:25 9.26955 46.59311 35796 ft 496 kts 276°
2026-05-04 15:26 9.28042 46.48924 35795 ft 496 kts 277°
2026-05-04 15:26 9.29130 46.38506 35797 ft 496 kts 277°
2026-05-04 15:27 9.30219 46.28086 35796 ft 496 kts 277°
2026-05-04 15:28 9.31300 46.17672 35795 ft 496 kts 277°
2026-05-04 15:29 9.32377 46.07259 35804 ft 495 kts 277°
2026-05-04 15:30 9.34872 45.83067 35852 ft 495 kts 277°
2026-05-04 15:31 9.35938 45.72666 35853 ft 495 kts 277°
2026-05-04 15:32 9.37713 45.55310 35850 ft 495 kts 277°
2026-05-04 15:34 9.39473 45.38011 35864 ft 495 kts 277°
2026-05-04 15:34 9.40525 45.27605 35859 ft 494 kts 277°
2026-05-04 15:35 9.41575 45.17211 35866 ft 494 kts 277°
2026-05-04 15:36 9.42622 45.06814 35866 ft 494 kts 277°
2026-05-04 15:36 9.43318 44.99886 35879 ft 494 kts 276°
2026-05-04 15:37 9.44013 44.92961 35893 ft 494 kts 276°
2026-05-04 15:37 9.44701 44.86084 35899 ft 493 kts 276°
2026-05-04 15:38 9.45394 44.79163 35898 ft 493 kts 276°
2026-05-04 15:38 9.46082 44.72242 35899 ft 493 kts 276°
2026-05-04 15:39 9.46769 44.65328 35896 ft 493 kts 276°
2026-05-04 15:40 9.47799 44.54961 35908 ft 493 kts 276°
2026-05-04 15:40 9.48483 44.48043 35907 ft 493 kts 276°
2026-05-04 15:41 9.49164 44.41128 35907 ft 493 kts 276°
2026-05-04 15:41 9.49842 44.34259 35909 ft 493 kts 276°
2026-05-04 15:42 9.50523 44.27340 35907 ft 493 kts 276°
2026-05-04 15:42 9.51202 44.20423 35915 ft 493 kts 276°
2026-05-04 15:43 9.51879 44.13509 35917 ft 493 kts 276°
2026-05-04 15:43 9.52465 44.06586 35913 ft 493 kts 274°
2026-05-04 15:44 9.52753 43.99693 35920 ft 493 kts 273°
2026-05-04 15:44 9.52998 43.92750 35926 ft 493 kts 273°
2026-05-04 15:45 9.53267 43.85805 35926 ft 493 kts 273°
2026-05-04 15:45 9.53553 43.78867 35926 ft 492 kts 273°
2026-05-04 15:46 9.53838 43.71930 35934 ft 492 kts 273°
2026-05-04 15:46 9.54121 43.65000 35937 ft 493 kts 273°
2026-05-04 15:47 9.54401 43.58066 35936 ft 492 kts 273°
2026-05-04 15:47 9.54677 43.51172 35944 ft 493 kts 273°
2026-05-04 15:48 9.55092 43.44257 35935 ft 490 kts 282°
2026-05-04 15:48 9.56063 43.40964 35958 ft 488 kts 294°
2026-05-04 15:48 9.59796 43.35297 35957 ft 484 kts 314°
2026-05-04 15:49 9.64496 43.30401 35956 ft 486 kts 315°
2026-05-04 15:49 9.69227 43.25480 35958 ft 488 kts 315°
2026-05-04 15:50 9.73938 43.20492 35957 ft 490 kts 314°
2026-05-04 15:50 9.78628 43.15480 35951 ft 490 kts 314°
2026-05-04 15:51 9.83281 43.10495 35954 ft 488 kts 314°
2026-05-04 15:51 9.87949 43.05494 35961 ft 487 kts 314°
2026-05-04 15:52 9.92614 43.00497 35962 ft 486 kts 314°
2026-05-04 15:52 9.97264 42.95516 35964 ft 486 kts 314°
2026-05-04 15:53 10.01914 42.90533 35962 ft 486 kts 314°
2026-05-04 15:53 10.06532 42.85580 35965 ft 486 kts 314°
2026-05-04 15:54 10.11181 42.80590 35962 ft 486 kts 314°
2026-05-04 15:54 10.15834 42.75598 35964 ft 486 kts 314°
2026-05-04 15:55 10.20479 42.70611 35971 ft 486 kts 314°
2026-05-04 15:55 10.25130 42.65613 35972 ft 486 kts 314°
2026-05-04 15:56 10.29750 42.60649 35972 ft 486 kts 314°
2026-05-04 15:56 10.34404 42.55646 35973 ft 486 kts 314°
2026-05-04 15:57 10.39052 42.50644 36006 ft 485 kts 314°
2026-05-04 15:57 10.43661 42.45686 36008 ft 486 kts 314°
2026-05-04 15:58 10.48304 42.40688 36007 ft 486 kts 314°
2026-05-04 15:58 10.52948 42.35686 36007 ft 486 kts 314°
2026-05-04 15:59 10.57591 42.30683 36014 ft 486 kts 314°
2026-05-04 15:59 10.62229 42.25678 36017 ft 486 kts 314°
2026-05-04 16:00 10.66839 42.20707 36018 ft 485 kts 314°
2026-05-04 16:00 10.71468 42.15712 36017 ft 485 kts 314°
2026-05-04 16:01 10.76101 42.10709 36024 ft 485 kts 314°
2026-05-04 16:01 10.80732 42.05706 36027 ft 485 kts 314°
2026-05-04 16:02 10.85368 42.00697 36027 ft 486 kts 313°
2026-05-04 16:03 10.92291 41.93209 36029 ft 487 kts 313°
2026-05-04 16:03 10.96933 41.88186 36038 ft 487 kts 313°
2026-05-04 16:04 11.01577 41.83158 36035 ft 487 kts 313°
2026-05-04 16:04 11.08550 41.75604 36036 ft 488 kts 313°
2026-05-04 16:05 11.13198 41.70564 36040 ft 488 kts 313°
2026-05-04 16:06 11.20142 41.63033 36053 ft 488 kts 313°
2026-05-04 16:07 11.29427 41.52954 36053 ft 488 kts 313°
2026-05-04 16:08 11.38704 41.42872 36057 ft 487 kts 313°
2026-05-04 16:09 11.50292 41.30265 36038 ft 488 kts 313°
2026-05-04 16:10 11.59555 41.20175 36053 ft 488 kts 313°
2026-05-04 16:11 11.68839 41.10052 36058 ft 488 kts 313°
2026-05-04 16:12 11.82192 40.95946 36065 ft 488 kts 319°
2026-05-04 16:13 11.92618 40.87075 36066 ft 488 kts 320°
2026-05-04 16:14 12.03007 40.78139 36069 ft 487 kts 319°
2026-05-04 16:16 12.15935 40.66973 36061 ft 488 kts 319°
2026-05-04 16:17 12.28891 40.55771 36060 ft 488 kts 319°
2026-05-04 16:18 12.39252 40.46804 36054 ft 488 kts 319°
2026-05-04 16:19 12.52161 40.35611 36053 ft 488 kts 319°
2026-05-04 16:20 12.65098 40.24359 36040 ft 488 kts 319°
2026-05-04 16:22 12.78009 40.13115 36013 ft 488 kts 319°
2026-05-04 16:23 12.93488 39.99615 35993 ft 487 kts 319°
2026-05-04 16:25 13.08978 39.86083 35994 ft 488 kts 319°
2026-05-04 16:26 13.27070 39.70249 35990 ft 488 kts 319°
2026-05-04 16:28 13.39955 39.58949 35980 ft 488 kts 319°
2026-05-04 16:29 13.56895 39.41925 35982 ft 487 kts 311°
2026-05-04 16:31 13.68403 39.29111 35971 ft 488 kts 312°
2026-05-04 16:32 13.82216 39.13766 35971 ft 488 kts 312°
2026-05-04 16:33 13.91435 39.03508 35972 ft 488 kts 312°
2026-05-04 16:34 13.98356 38.95796 35973 ft 489 kts 312°
2026-05-04 16:35 14.06485 38.89844 35984 ft 492 kts 344°
2026-05-04 16:35 14.16810 38.89517 36273 ft 498 kts
2026-05-04 16:36 14.20269 38.89623 36525 ft 497 kts
2026-05-04 16:36 14.27186 38.89758 36918 ft 496 kts 360°
2026-05-04 16:37 14.37387 38.89866 36946 ft 485 kts 359°
2026-05-04 16:38 14.50925 38.90009 36949 ft 488 kts 359°
2026-05-04 16:39 14.67893 38.90025 36941 ft 489 kts 359°
2026-05-04 16:40 14.81505 38.90040 36937 ft 488 kts 359°
2026-05-04 16:41 14.98423 38.90063 36929 ft 487 kts 359°
2026-05-04 16:43 15.15390 38.90084 36918 ft 487 kts 358°
2026-05-04 16:43 15.25557 38.90096 36923 ft 487 kts 358°
2026-05-04 16:45 15.45870 38.90705 36896 ft 488 kts
2026-05-04 16:46 15.62867 38.91328 36905 ft 488 kts
2026-05-04 16:47 15.76412 38.91811 36899 ft 488 kts
2026-05-04 16:48 15.89997 38.92296 36890 ft 488 kts
2026-05-04 16:49 16.03578 38.92781 36891 ft 488 kts 360°
2026-05-04 16:50 16.17127 38.93266 36891 ft 488 kts 360°
2026-05-04 16:51 16.27310 38.93633 36891 ft 488 kts 359°
2026-05-04 16:52 16.40894 38.94120 36881 ft 488 kts 359°
2026-05-04 16:53 16.51088 38.94487 36881 ft 488 kts 359°
2026-05-04 16:54 16.64681 38.94977 36881 ft 488 kts 359°
2026-05-04 16:55 16.85033 38.95711 36871 ft 488 kts 359°
2026-05-04 16:56 17.01970 38.96325 36927 ft 487 kts 359°
2026-05-04 16:57 17.12129 38.96690 36995 ft 487 kts 359°
2026-05-04 16:58 17.25680 38.97181 37045 ft 488 kts 359°
2026-05-04 17:00 17.46074 38.97922 37033 ft 490 kts 359°
2026-05-04 17:01 17.61953 38.98501 37033 ft 488 kts 359°
2026-05-04 17:02 17.75500 38.98992 37039 ft 488 kts 359°
2026-05-04 17:03 17.85686 38.99363 36982 ft 488 kts 359°
2026-05-04 17:03 17.95872 38.99735 36971 ft 488 kts 359°
2026-05-04 17:04 18.09442 39.00231 36986 ft 488 kts 359°
2026-05-04 17:05 18.22995 39.00799 36978 ft 490 kts 360°
2026-05-04 17:06 18.33220 39.01395 37001 ft 490 kts 360°
2026-05-04 17:07 18.42287 39.01907 37077 ft 489 kts 360°
2026-05-04 17:07 18.50231 39.02343 37133 ft 489 kts 360°
2026-05-04 17:08 18.60400 39.02903 37151 ft 490 kts 359°
2026-05-04 17:09 18.67241 39.03282 37103 ft 492 kts 359°
2026-05-04 17:09 18.74091 39.03661 37056 ft 492 kts 360°
2026-05-04 17:10 18.91146 39.04608 36992 ft 491 kts 359°
2026-05-04 17:11 18.97965 39.04987 37000 ft 490 kts 359°
2026-05-04 17:12 19.08191 39.05543 36993 ft 490 kts 358°
2026-05-04 17:12 19.14941 39.05047 36988 ft 484 kts 347°
2026-05-04 17:13 19.24686 39.02449 36972 ft 481 kts 340°
2026-05-04 17:14 19.37577 38.98688 36961 ft 482 kts 341°
2026-05-04 17:15 19.47299 38.95912 36953 ft 482 kts 341°
2026-05-04 17:16 19.60267 38.92210 36935 ft 482 kts 341°
2026-05-04 17:17 19.73174 38.88514 36913 ft 482 kts 341°
2026-05-04 17:18 19.86130 38.84798 36918 ft 482 kts 341°
2026-05-04 17:19 19.99103 38.81072 36900 ft 483 kts 340°
2026-05-04 17:20 20.12044 38.77348 36865 ft 483 kts 340°
2026-05-04 17:20 20.21767 38.74549 36850 ft 482 kts 340°
2026-05-04 17:21 20.34705 38.70813 36847 ft 482 kts 340°
2026-05-04 17:22 20.41171 38.68944 36882 ft 481 kts 340°
2026-05-04 17:23 20.54113 38.65199 36882 ft 482 kts 340°
2026-05-04 17:24 20.63782 38.62395 36877 ft 482 kts 339°
2026-05-04 17:25 20.76739 38.58635 36870 ft 482 kts 339°
2026-05-04 17:25 20.83287 38.57040 36851 ft 488 kts 353°
2026-05-04 17:26 20.90025 38.58520 36860 ft 510 kts 24°
2026-05-04 17:27 21.05143 38.68670 36856 ft 516 kts 28°
2026-05-04 17:28 21.17370 38.76725 36845 ft 518 kts 27°
2026-05-04 17:29 21.35788 38.88854 36839 ft 516 kts 27°
2026-05-04 17:31 21.51034 38.98933 36834 ft 517 kts 28°
2026-05-04 17:32 21.66368 39.09039 36819 ft 513 kts 22°
2026-05-04 17:33 21.76461 39.10107 36866 ft 482 kts 338°
2026-05-04 17:33 21.79556 39.08853 36935 ft 474 kts 330°
2026-05-04 17:34 21.88702 39.04689 37576 ft 475 kts 331°
2026-05-04 17:34 21.91759 39.03332 37747 ft 475 kts 331°
2026-05-04 17:35 22.07071 38.96622 37828 ft 472 kts 330°
2026-05-04 17:36 22.13143 38.93962 37830 ft 469 kts 330°
2026-05-04 17:36 22.19188 38.91306 37833 ft 469 kts 330°
2026-05-04 17:37 22.25194 38.88663 37835 ft 470 kts 330°
2026-05-04 17:37 22.31255 38.85996 37835 ft 471 kts 330°
2026-05-04 17:38 22.37332 38.83320 37833 ft 472 kts 330°
2026-05-04 17:38 22.43428 38.80632 37836 ft 473 kts 330°
2026-05-04 17:39 22.52561 38.76603 37831 ft 472 kts 330°
2026-05-04 17:39 22.58642 38.73915 37834 ft 471 kts 330°
2026-05-04 17:40 22.64716 38.71229 37831 ft 471 kts 330°
2026-05-04 17:40 22.70777 38.68544 37833 ft 470 kts 330°
2026-05-04 17:41 22.76825 38.65860 37834 ft 470 kts 330°
2026-05-04 17:41 22.82844 38.63185 37833 ft 469 kts 330°
2026-05-04 17:42 22.88890 38.60496 37835 ft 470 kts 329°
2026-05-04 17:42 22.94931 38.57807 37834 ft 470 kts 329°
2026-05-04 17:43 23.00978 38.55113 37833 ft 469 kts 329°
2026-05-04 17:43 23.07019 38.52418 37828 ft 469 kts 329°
2026-05-04 17:44 23.13024 38.49738 37822 ft 469 kts 329°
2026-05-04 17:44 23.19056 38.47043 37820 ft 468 kts 329°
2026-05-04 17:45 23.25071 38.44354 37818 ft 467 kts 329°
2026-05-04 17:45 23.31090 38.41657 37813 ft 467 kts 329°
2026-05-04 17:46 23.37091 38.38967 37819 ft 466 kts 329°
2026-05-04 17:46 23.43090 38.36275 37812 ft 466 kts 328°
2026-05-04 17:47 23.49048 38.33598 37805 ft 466 kts 328°
2026-05-04 17:47 23.55043 38.30904 37805 ft 466 kts 328°
2026-05-04 17:48 23.61039 38.28205 37800 ft 466 kts 328°
2026-05-04 17:48 23.66026 38.25960 37795 ft 466 kts 328°
2026-05-04 17:49 23.72014 38.23272 37796 ft 465 kts 328°
2026-05-04 17:49 23.78012 38.20580 37788 ft 465 kts 328°
2026-05-04 17:50 23.83981 38.17898 37786 ft 464 kts 328°
2026-05-04 17:50 23.89947 38.15213 37784 ft 463 kts 328°
2026-05-04 17:51 23.95876 38.12540 37775 ft 463 kts 328°
2026-05-04 17:51 24.01830 38.09852 37778 ft 463 kts 328°
2026-05-04 17:52 24.07783 38.07164 37778 ft 463 kts 328°
2026-05-04 17:52 24.13710 38.04424 37776 ft 459 kts 324°
2026-05-04 17:53 24.19123 38.00924 37781 ft 448 kts 316°
2026-05-04 17:53 24.24245 37.97037 37779 ft 448 kts 316°
2026-05-04 17:54 24.29341 37.93164 37776 ft 449 kts 316°
2026-05-04 17:54 24.34488 37.89278 37778 ft 449 kts 316°
2026-05-04 17:55 24.39648 37.85397 37791 ft 450 kts 316°
2026-05-04 17:55 24.44813 37.81509 37785 ft 450 kts 316°
2026-05-04 17:56 24.49974 37.77618 37789 ft 450 kts 316°
2026-05-04 17:56 24.55141 37.73722 37794 ft 450 kts 316°
2026-05-04 17:57 24.60298 37.69828 37804 ft 449 kts 316°
2026-05-04 17:57 24.65412 37.65960 37809 ft 449 kts 316°
2026-05-04 17:58 24.70566 37.62060 37824 ft 448 kts 316°
2026-05-04 17:58 24.75701 37.58166 37823 ft 448 kts 316°
2026-05-04 17:59 24.80850 37.54262 37835 ft 448 kts 316°
2026-05-04 18:00 24.88539 37.48423 37839 ft 450 kts 316°
2026-05-04 18:00 24.93690 37.44508 37850 ft 450 kts 316°
2026-05-04 18:01 24.98837 37.40591 37853 ft 449 kts 316°
2026-05-04 18:01 25.03974 37.36676 37863 ft 448 kts 316°
2026-05-04 18:02 25.11673 37.30801 37862 ft 448 kts 316°
2026-05-04 18:02 25.16766 37.26910 37880 ft 448 kts 316°
2026-05-04 18:03 25.21896 37.22987 37888 ft 448 kts 315°
2026-05-04 18:03 25.27029 37.19056 37882 ft 449 kts 315°
2026-05-04 18:04 25.32161 37.15120 37882 ft 449 kts 315°
2026-05-04 18:05 25.39861 37.09201 37876 ft 449 kts 315°
2026-05-04 18:05 25.44999 37.05263 37883 ft 449 kts 315°
2026-05-04 18:06 25.52674 36.99382 37891 ft 449 kts 315°
2026-05-04 18:06 25.57810 36.95436 37883 ft 449 kts 315°
2026-05-04 18:07 25.62942 36.91493 37889 ft 448 kts 315°
2026-05-04 18:07 25.68068 36.87547 37888 ft 448 kts 315°
2026-05-04 18:08 25.73195 36.83595 37891 ft 448 kts 315°
2026-05-04 18:08 25.78308 36.79635 37886 ft 448 kts 315°
2026-05-04 18:09 25.88486 36.71732 37901 ft 447 kts 315°
2026-05-04 18:10 25.93579 36.67773 37900 ft 447 kts 315°
2026-05-04 18:10 25.98672 36.63809 37928 ft 446 kts 315°
2026-05-04 18:11 26.03750 36.59851 37933 ft 445 kts 315°
2026-05-04 18:11 26.08800 36.55911 37936 ft 445 kts 315°
2026-05-04 18:12 26.13878 36.51965 37934 ft 447 kts 317°
2026-05-04 18:12 26.16705 36.50377 37945 ft 464 kts 329°
2026-05-04 18:12 26.19858 36.49352 37941 ft 478 kts 338°
2026-05-04 18:13 26.23210 36.48898 37935 ft 494 kts 349°
2026-05-04 18:13 26.26677 36.48999 37937 ft 500 kts 353°
2026-05-04 18:14 26.37154 36.49790 37934 ft 503 kts 354°
2026-05-04 18:14 26.44098 36.50256 37933 ft 503 kts 353°
2026-05-04 18:15 26.58079 36.51032 37939 ft 502 kts 353°
2026-05-04 18:16 26.65058 36.51414 37932 ft 502 kts 353°
2026-05-04 18:16 26.72047 36.51804 37939 ft 502 kts 353°
2026-05-04 18:17 26.82524 36.52388 37938 ft 503 kts 353°
2026-05-04 18:18 26.93028 36.52980 37937 ft 503 kts 353°
2026-05-04 18:18 26.99975 36.53368 37929 ft 503 kts 353°
2026-05-04 18:19 27.10468 36.53957 37944 ft 504 kts 353°
2026-05-04 18:19 27.17491 36.54350 37938 ft 505 kts 353°
2026-05-04 18:20 27.24511 36.54736 37932 ft 506 kts 353°
2026-05-04 18:20 27.31528 36.55123 37946 ft 505 kts 353°
2026-05-04 18:21 27.38569 36.55515 37954 ft 507 kts 352°
2026-05-04 18:21 27.45618 36.55904 37947 ft 507 kts 352°
2026-05-04 18:22 27.52628 36.56295 37955 ft 507 kts 352°
2026-05-04 18:22 27.59681 36.56688 37960 ft 507 kts 352°
2026-05-04 18:23 27.66732 36.57081 37953 ft 507 kts 352°
2026-05-04 18:23 27.73770 36.57475 37955 ft 506 kts 352°
2026-05-04 18:24 27.80795 36.57870 37962 ft 505 kts 352°
2026-05-04 18:24 27.87804 36.58263 37984 ft 504 kts 352°
2026-05-04 18:25 27.94824 36.58654 37971 ft 505 kts 352°
2026-05-04 18:25 28.01844 36.59044 37982 ft 505 kts 352°
2026-05-04 18:26 28.08870 36.59439 37996 ft 505 kts 352°
2026-05-04 18:26 28.15887 36.59838 37980 ft 505 kts 352°
2026-05-04 18:27 28.22858 36.60231 37990 ft 504 kts 352°
2026-05-04 18:27 28.29906 36.60627 37991 ft 504 kts 352°
2026-05-04 18:28 28.36829 36.60824 37987 ft 495 kts 346°
2026-05-04 18:28 28.43541 36.59856 37997 ft 483 kts 339°
2026-05-04 18:29 28.50184 36.58576 37994 ft 485 kts 339°
2026-05-04 18:29 28.56856 36.57363 37989 ft 486 kts 340°
2026-05-04 18:30 28.66806 36.55597 37993 ft 486 kts 340°
2026-05-04 18:31 28.73144 36.54471 37996 ft 486 kts 340°
2026-05-04 18:31 28.79783 36.53289 37992 ft 486 kts 340°
2026-05-04 18:32 28.86470 36.52096 37988 ft 485 kts 340°
2026-05-04 18:32 28.93152 36.50902 37990 ft 485 kts 340°
2026-05-04 18:33 28.99821 36.49710 37995 ft 485 kts 340°
2026-05-04 18:33 29.06307 36.48547 37992 ft 485 kts 340°
2026-05-04 18:34 29.12927 36.47357 37990 ft 484 kts 340°
2026-05-04 18:34 29.19574 36.46145 37991 ft 483 kts 340°
2026-05-04 18:35 29.26205 36.44935 37989 ft 482 kts 340°
2026-05-04 18:35 29.31582 36.43952 37989 ft 481 kts 340°
2026-05-04 18:36 29.38201 36.42742 37997 ft 481 kts 340°
2026-05-04 18:36 29.44818 36.41533 38000 ft 481 kts 340°
2026-05-04 18:37 29.50318 36.40531 38002 ft 481 kts 340°
2026-05-04 18:37 29.58009 36.39129 37998 ft 480 kts 340°
2026-05-04 18:38 29.64606 36.37924 38003 ft 480 kts 340°
2026-05-04 18:38 29.70097 36.36920 38014 ft 479 kts 340°
2026-05-04 18:39 29.76668 36.35624 38030 ft 478 kts 339°
2026-05-04 18:39 29.83215 36.34261 38030 ft 478 kts 339°
2026-05-04 18:40 29.89721 36.32916 38030 ft 477 kts 339°
2026-05-04 18:40 29.96304 36.31567 38025 ft 477 kts 339°
2026-05-04 18:41 30.02800 36.30237 38031 ft 476 kts 339°
2026-05-04 18:41 30.09330 36.28896 38030 ft 476 kts 339°
2026-05-04 18:42 30.13741 36.27989 38031 ft 475 kts 339°
2026-05-04 18:42 30.20258 36.26648 38038 ft 476 kts 339°
2026-05-04 18:43 30.26424 36.25422 38037 ft 478 kts 339°
2026-05-04 18:43 30.30559 36.24618 38037 ft 479 kts 339°
2026-05-04 18:44 30.37132 36.23336 38036 ft 479 kts 339°
2026-05-04 18:44 30.43661 36.22061 37431 ft 472 kts 339°
2026-05-04 18:44 30.46883 36.21433 37012 ft 466 kts 339°
2026-05-04 18:45 30.50057 36.20811 36607 ft 460 kts 339°
2026-05-04 18:45 30.53208 36.20192 36196 ft 455 kts 339°
2026-05-04 18:45 30.56279 36.19585 35789 ft 450 kts 339°
2026-05-04 18:45 30.59393 36.18967 35339 ft 447 kts 339°
2026-05-04 18:46 30.62446 36.18361 34898 ft 443 kts 339°
2026-05-04 18:46 30.65475 36.17761 34467 ft 439 kts 339°
2026-05-04 18:46 30.68478 36.17167 34029 ft 436 kts 339°
2026-05-04 18:46 30.71450 36.16578 33618 ft 432 kts 339°
2026-05-04 18:47 30.74366 36.15999 33200 ft 429 kts 339°
2026-05-04 18:47 30.77296 36.15417 32765 ft 425 kts 339°
2026-05-04 18:47 30.80205 36.14840 32336 ft 422 kts 339°
2026-05-04 18:47 30.83089 36.14268 31912 ft 419 kts 339°
2026-05-04 18:48 30.85953 36.13701 31492 ft 416 kts 339°
2026-05-04 18:48 30.88670 36.13166 31091 ft 414 kts 339°
2026-05-04 18:48 30.91503 36.12608 30662 ft 411 kts 339°
2026-05-04 18:48 30.94312 36.12054 30244 ft 409 kts 339°
2026-05-04 18:49 30.97109 36.11501 29818 ft 407 kts 339°
2026-05-04 18:49 30.99892 36.10950 29377 ft 405 kts 339°
2026-05-04 18:49 31.02673 36.10398 28915 ft 404 kts 339°
2026-05-04 18:49 31.05437 36.09850 28463 ft 403 kts 339°
2026-05-04 18:50 31.08202 36.09300 27995 ft 402 kts 339°
2026-05-04 18:50 31.10950 36.08755 27553 ft 400 kts 339°
2026-05-04 18:50 31.13692 36.08211 27102 ft 399 kts 339°
2026-05-04 18:50 31.16425 36.07667 26656 ft 397 kts 339°
2026-05-04 18:51 31.19146 36.07127 26203 ft 396 kts 339°
2026-05-04 18:51 31.21860 36.06574 25756 ft 392 kts 337°
2026-05-04 18:51 31.24426 36.05762 25323 ft 381 kts 329°
2026-05-04 18:51 31.26872 36.04652 24857 ft 373 kts 324°
2026-05-04 18:52 31.29157 36.03288 24401 ft 366 kts 320°
2026-05-04 18:52 31.31385 36.01858 23950 ft 364 kts 320°
2026-05-04 18:52 31.33597 36.00415 23510 ft 363 kts 320°
2026-05-04 18:52 31.35802 35.98975 23064 ft 363 kts 320°
2026-05-04 18:53 31.38003 35.97543 22616 ft 362 kts 320°
2026-05-04 18:53 31.40209 35.96111 22146 ft 362 kts 320°
2026-05-04 18:53 31.42415 35.94684 21686 ft 361 kts 320°
2026-05-04 18:53 31.44609 35.93268 21240 ft 360 kts 320°
2026-05-04 18:54 31.46800 35.91854 20785 ft 358 kts 320°
2026-05-04 18:54 31.48984 35.90444 20346 ft 357 kts 320°
2026-05-04 18:54 31.51128 35.89058 19908 ft 356 kts 320°
2026-05-04 18:54 31.53296 35.87657 19463 ft 355 kts 321°
2026-05-04 18:55 31.55455 35.86260 19024 ft 354 kts 321°
2026-05-04 18:55 31.59753 35.83478 18137 ft 352 kts 321°
2026-05-04 18:55 31.61897 35.82091 17684 ft 351 kts 321°
2026-05-04 18:56 31.64034 35.80708 17226 ft 350 kts 321°
2026-05-04 18:56 31.66163 35.79329 16786 ft 349 kts 321°
2026-05-04 18:56 31.68285 35.77953 16350 ft 347 kts 322°
2026-05-04 18:56 31.70370 35.76600 15897 ft 346 kts 322°
2026-05-04 18:57 31.72157 35.75439 15522 ft 346 kts 322°
2026-05-04 18:57 31.74288 35.74062 15060 ft 327 kts 322°
2026-05-04 18:57 31.76212 35.72825 14644 ft 308 kts 322°
2026-05-04 18:57 31.78084 35.71607 14250 ft 307 kts 322°
2026-05-04 18:58 31.79945 35.70388 13853 ft 305 kts 322°
2026-05-04 18:58 31.81803 35.69172 13430 ft 305 kts 322°
2026-05-04 18:58 31.83660 35.67958 13048 ft 307 kts 322°
2026-05-04 18:58 31.85530 35.66737 12633 ft 306 kts 323°
2026-05-04 18:59 31.87394 35.65522 12231 ft 307 kts 323°
2026-05-04 18:59 31.89265 35.64303 11825 ft 307 kts 323°
2026-05-04 18:59 31.91084 35.63046 11403 ft 296 kts 316°
2026-05-04 18:59 31.92383 35.61267 11025 ft 283 kts 294°
2026-05-04 19:00 31.93104 35.59139 10612 ft 279 kts 281°
2026-05-04 19:00 31.93332 35.56916 10322 ft 274 kts 271°
2026-05-04 19:00 31.93379 35.54711 10194 ft 265 kts 270°
2026-05-04 19:00 31.93374 35.52587 10075 ft 254 kts 269°
2026-05-04 19:01 31.93339 35.50552 9823 ft 245 kts 270°
2026-05-04 19:01 31.93406 35.48555 9574 ft 244 kts 272°
2026-05-04 19:01 31.93503 35.46555 9323 ft 246 kts 272°
2026-05-04 19:01 31.93604 35.44525 9066 ft 248 kts 272°
2026-05-04 19:02 31.93703 35.42487 8794 ft 249 kts 272°
2026-05-04 19:02 31.93798 35.40475 8527 ft 248 kts 272°
2026-05-04 19:02 31.93891 35.38450 8267 ft 248 kts 272°
2026-05-04 19:02 31.93981 35.36425 7996 ft 247 kts 273°
2026-05-04 19:03 31.94071 35.34427 7767 ft 242 kts 273°
2026-05-04 19:03 31.94157 35.32437 7473 ft 243 kts 273°
2026-05-04 19:03 31.94246 35.30449 7214 ft 242 kts 273°
2026-05-04 19:03 31.94333 35.28464 6962 ft 243 kts 273°
2026-05-04 19:04 31.94419 35.26470 6689 ft 244 kts 273°
2026-05-04 19:04 31.94504 35.24484 6418 ft 242 kts 273°
2026-05-04 19:04 31.94563 35.23170 6257 ft 241 kts 273°
2026-05-04 19:04 31.94579 35.22818 6205 ft 238 kts 273°
2026-05-04 19:05 31.94656 35.20963 5925 ft 220 kts 271°
2026-05-04 19:05 31.94295 35.19221 5690 ft 222 kts 243°
2026-05-04 19:05 31.93430 35.17717 5422 ft 223 kts 236°
2026-05-04 19:05 31.92481 35.16255 5120 ft 225 kts 236°
2026-05-04 19:06 31.91508 35.14805 4836 ft 225 kts 234°
2026-05-04 19:06 31.90545 35.13371 4612 ft 221 kts 235°
2026-05-04 19:06 31.89708 35.11918 4418 ft 210 kts 252°
2026-05-04 19:06 31.89640 35.10267 4221 ft 202 kts 287°
2026-05-04 19:07 31.90181 35.08785 4062 ft 198 kts 293°
2026-05-04 19:07 31.90754 35.07313 3796 ft 197 kts 295°
2026-05-04 19:07 31.91405 35.05898 3524 ft 196 kts 299°
2026-05-04 19:07 31.92104 35.04525 3292 ft 193 kts 300°
2026-05-04 19:08 31.92782 35.03223 3004 ft 182 kts 301°
2026-05-04 19:08 31.93429 35.01990 2731 ft 170 kts 300°
2026-05-04 19:08 31.93891 35.01106 2525 ft 158 kts 300°
2026-05-04 19:08 31.94271 35.00379 2406 ft 152 kts 299°
2026-05-04 19:09 31.94821 34.99324 2204 ft 150 kts 299°
2026-05-04 19:09 31.95377 34.98257 1983 ft 151 kts 298°
2026-05-04 19:09 31.95905 34.97245 1782 ft 138 kts 298°
2026-05-04 19:09 31.96390 34.96316 1600 ft 132 kts 298°
2026-05-04 19:10 31.96874 34.95388 1404 ft 132 kts 298°
2026-05-04 19:10 31.97346 34.94480 1214 ft 129 kts 297°
2026-05-04 19:10 31.97819 34.93567 1033 ft 131 kts 299°
2026-05-04 19:10 31.98300 34.92655 842 ft 131 kts 298°
2026-05-04 19:11 31.98770 34.91753 664 ft 131 kts 298°
2026-05-04 19:11 31.99246 34.90847 464 ft 129 kts 296°
2026-05-04 19:11 31.99719 34.89958 268 ft 127 kts 297°
2026-05-04 19:11 32.00180 34.89078 140 ft 123 kts 297°
2026-05-04 19:12 32.00567 34.88326 125 ft 88 kts 303°
2026-05-04 19:12 32.00966 34.87551 126 ft 40 kts 301°
2026-05-04 19:12 32.01062 34.87233 125 ft 36 kts 271°
2026-05-04 19:13 32.01048 34.87072 124 ft 4 kts 214°
2026-05-04 19:13 32.00994 34.87091 124 ft 19 kts 136°
2026-05-04 19:13 32.00895 34.87264 124 ft 26 kts 121°
2026-05-04 19:13 32.00802 34.87444 125 ft 26 kts 121°
2026-05-04 19:14 32.00707 34.87627 124 ft 27 kts 121°
2026-05-04 19:14 32.00622 34.87711 124 ft 13 kts 192°
2026-05-04 19:14 32.00522 34.87690 124 ft 16 kts 175°
2026-05-04 19:14 32.00443 34.87658 124 ft 9 kts 232°
2026-05-04 19:15 32.00425 34.87627 124 ft 3 kts 236°
2026-05-04 19:15 32.00419 34.87615 124 ft 0 kts 238°